This demonstration page uses our WeatherBlox Daily Observations layout. Learn more.

Hourly Observations for December 12, 2017

Temp ( °F °C ) Dew Point ( °F °C ) Humidity (%) Winds ( mph kmh ) Pressure ( in mb ) Visibility ( mi km ) Precip ( " mm )
12:15 am 00:15 Cloudy 38 3.3 30 -1.3 72 72 N 12 19 30.42 1030 10 16.09344 0 0
12:35 am 00:35 Cloudy 38 3.3 29 -1.5 71 71 N 12 19 30.42 1030 10 16.09344 0 0
12:55 am 00:55 Cloudy 38 3.1 29 -1.6 72 72 N 9 15 30.42 1030 10 16.09344 0 0
1:15 am 01:15 Cloudy 38 3.1 29 -1.5 72 72 NNW 8 13 30.45 1031 10 16.09344 0 0
1:35 am 01:35 Cloudy 38 3.1 29 -1.5 72 72 NNW 8 13 30.45 1031 10 16.09344 0 0
1:55 am 01:55 Cloudy 33 0.8 27 -2.9 77 77 W 12 19 30.45 1031 10 16.09344 0 0
2:15 am 02:15 Cloudy 32 0 26 -3.2 79 79 W 8 13 30.48 1032 10 16.09344 0 0
2:35 am 02:35 Cloudy 32 0 26 -3.3 79 79 W 9 15 30.48 1032 10 16.09344 0 0
2:55 am 02:55 Cloudy 31 -0.5 26 -3.6 80 80 W 6 9 30.5 1033 10 16.09344 0 0
3:15 am 03:15 Cloudy 30 -1 25 -4 80 80 WNW 7 11 30.5 1033 10 16.09344 0 0
3:35 am 03:35 Partly Cloudy 28 -2.2 24 -4.5 84 84 W 9 15 30.48 1032 10 16.09344 0 0
3:55 am 03:55 Clear 27 -2.6 24 -4.7 86 86 W 7 11 30.48 1032 10 16.09344 0 0
4:15 am 04:15 Clear 27 -3 23 -5 86 86 WNW 9 15 30.48 1032 10 16.09344 0 0
4:35 am 04:35 Clear 26 -3.2 23 -5 88 88 WNW 8 13 30.48 1032 10 16.09344 0 0
4:55 am 04:55 Clear 26 -3.3 23 -5 88 88 WNW 8 13 30.45 1031 10 16.09344 0 0
5:15 am 05:15 Clear 26 -3.6 22 -5.4 88 88 WNW 7 11 30.45 1031 10 16.09344 0 0
5:35 am 05:35 Clear 24 -4.3 21 -6 88 88 WNW 6 9 30.48 1032 10 16.09344 0 0
5:55 am 05:55 Clear 23 -5.1 21 -6.3 91 91 WNW 6 9 30.48 1032 10 16.09344 0 0
6:15 am 06:15 Clear 23 -4.8 21 -6 91 91 WNW 6 9 30.48 1032 10 16.09344 0 0
6:35 am 06:35 Clear 22 -5.3 20 -6.5 91 91 WNW 6 9 30.48 1032 10 16.09344 0 0
6:55 am 06:55 Clear 22 -5.5 20 -6.5 93 93 WNW 5 7 30.48 1032 10 16.09344 0 0
7:15 am 07:15 Clear 22 -5.7 20 -6.7 93 93 W 8 13 30.48 1032 10 16.09344 0 0
7:35 am 07:35 Clear 23 -5 21 -6 93 93 W 8 13 30.45 1031 10 16.09344 0 0
7:55 am 07:55 Sunny 24 -4.7 21 -6 91 91 WNW 7 11 30.45 1031 10 16.09344 0 0
8:15 am 08:15 Sunny 22 -5.4 20 -6.8 90 90 W 6 9 30.45 1031 10 16.09344 0 0
8:35 am 08:35 Sunny 25 -4.1 22 -5.5 90 90 W 5 7 30.45 1031 10 16.09344 0 0
8:55 am 08:55 Sunny 27 -2.9 24 -4.6 88 88 WSW 7 11 30.42 1030 10 16.09344 0 0
9:15 am 09:15 Sunny 27 -2.6 23 -5 84 84 W 8 13 30.42 1030 10 16.09344 0 0
9:35 am 09:35 Sunny 29 -1.4 24 -4.4 80 80 W 8 13 30.42 1030 10 16.09344 0 0
9:55 am 09:55 Sunny 32 0 26 -3.4 78 78 W 7 11 30.39 1029 10 16.09344 0 0
10:15 am 10:15 Sunny 36 2 28 -2.4 73 73 W 7 11 30.33 1027 10 16.09344 0 0
10:35 am 10:35 Sunny 38 3.6 28 -2.1 67 67 WSW 10 17 30.33 1027 10 16.09344 0 0
10:55 am 10:55 Sunny 39 4.1 28 -2.4 63 63 W 8 13 30.3 1026 10 16.09344 0 0
11:15 am 11:15 Sunny 39 4.1 27 -2.9 61 61 WSW 7 11 30.3 1026 10 16.09344 0 0
11:35 am 11:35 Sunny 41 5.2 28 -2.3 59 59 WSW 8 13 30.27 1025 10 16.09344 0 0
11:55 am 11:55 Sunny 42 5.7 27 -2.8 55 55 WSW 7 11 30.27 1025 10 16.09344 0 0
12:15 pm 12:15 Sunny 45 7 26 -3.4 48 48 WSW 8 13 30.24 1024 10 16.09344 0 0
12:35 pm 12:35 Sunny 45 7.2 25 -3.7 46 46 WSW 7 11 30.24 1024 10 16.09344 0 0
12:55 pm 12:55 Sunny 46 7.8 26 -3.6 45 45 WSW 7 11 30.18 1022 10 16.09344 0 0
1:15 pm 13:15 Sunny 47 8.4 25 -3.8 42 42 WSW 7 11 30.15 1021 10 16.09344 0 0
1:35 pm 13:35 Sunny 48 8.8 25 -3.8 41 41 SW 7 11 30.15 1021 10 16.09344 0 0
1:55 pm 13:55 Sunny 48 9 25 -3.9 40 40 W 9 15 30.15 1021 10 16.09344 0 0
2:15 pm 14:15 Sunny 49 9.3 25 -4.1 39 39 WSW 8 13 30.15 1021 10 16.09344 0 0
2:35 pm 14:35 Sunny 49 9.5 24 -4.2 38 38 WSW 8 13 30.15 1021 10 16.09344 0 0
2:55 pm 14:55 Sunny 49 9.6 24 -4.4 37 37 W 10 17 30.12 1020 10 16.09344 0 0
3:15 pm 15:15 Sunny 49 9.6 24 -4.2 38 38 WSW 7 11 30.12 1020 10 16.09344 0 0
3:35 pm 15:35 Sunny 50 10 24 -4.5 36 36 WSW 7 11 30.06 1018 10 16.09344 0 0
3:55 pm 15:55 Sunny 49 9.7 24 -4.4 37 37 WSW 7 11 30.09 1019 10 16.09344 0 0
4:15 pm 16:15 Sunny 49 9.2 24 -4.3 39 39 SW 6 9 30.09 1019 10 16.09344 0 0
4:35 pm 16:35 Sunny 48 8.9 24 -4.5 39 39 SW 7 11 30.09 1019 10 16.09344 0 0
4:55 pm 16:55 Sunny 46 7.8 24 -4.6 41 41 SW 6 9 30.06 1018 10 16.09344 0 0
5:15 pm 17:15 Clear 44 6.5 23 -5 44 44 SW 7 11 30.06 1018 10 16.09344 0 0
5:35 pm 17:35 Clear 42 5.5 22 -5.4 46 46 SW 6 9 30.06 1018 10 16.09344 0 0
5:55 pm 17:55 Clear 41 5 22 -5.5 47 47 SSW 6 9 30.06 1018 10 16.09344 0 0
6:15 pm 18:15 Clear 40 4.3 22 -5.8 48 48 SSW 7 11 30.06 1018 10 16.09344 0 0
6:35 pm 18:35 Clear 40 4.5 21 -6 47 47 SSW 6 9 30.03 1017 10 16.09344 0 0
6:55 pm 18:55 Clear 40 4.3 21 -6 47 47 SSW 6 9 30.03 1017 10 16.09344 0 0
7:15 pm 19:15 Clear 39 3.7 21 -6.1 49 49 SSW 7 11 30.03 1017 10 16.09344 0 0
7:35 pm 19:35 Clear 39 3.7 21 -6 50 50 SSW 7 11 30.03 1017 10 16.09344 0 0
7:55 pm 19:55 Clear 39 4.1 21 -6.1 48 48 SSW 8 13 30 1016 10 16.09344 0 0
8:15 pm 20:15 Clear 41 5.2 21 -6.1 44 44 SW 9 15 30 1016 10 16.09344 0 0
8:35 pm 20:35 Clear 42 5.5 21 -6 44 44 SW 9 15 29.97 1015 10 16.09344 0 0
8:55 pm 20:55 Clear 43 5.9 21 -6.1 42 42 SW 9 15 29.94 1014 10 16.09344 0 0
9:15 pm 21:15 Clear 43 6.1 21 -6.1 42 42 SW 9 15 29.94 1014 10 16.09344 0 0
9:35 pm 21:35 Clear 42 5.3 21 -6.2 44 44 SW 7 11 29.94 1014 10 16.09344 0 0
9:55 pm 21:55 Clear 42 5.7 21 -6 43 43 WSW 8 13 29.91 1013 10 16.09344 0 0
10:15 pm 22:15 Clear 44 6.7 22 -5.7 41 41 WSW 10 17 29.91 1013 10 16.09344 0 0
10:35 pm 22:35 Clear 46 7.7 22 -5.5 39 39 WSW 13 20 29.88 1012 10 16.09344 0 0
10:55 pm 22:55 Clear 45 7.3 22 -5.5 40 40 W 12 19 29.88 1012 10 16.09344 0 0
11:15 pm 23:15 Clear 44 6.6 22 -5.7 41 41 W 13 20 29.88 1012 10 16.09344 0 0
11:35 pm 23:35 Clear 42 5.5 22 -5.7 45 45 W 14 22 29.85 1011 10 16.09344 0 0
11:55 pm 23:55 Clear 42 5.8 22 -5.6 44 44 W 13 20 29.85 1011 10 16.09344 0 0

Powered by AerisWeather